Weather History for Lumberton, NC

Change the Weather History Date:

Monday, September 26, 2011

  Actual Average Record
Temperature  
Mean Temperature 75 °F 70 °F  
Max Temperature 83 °F 81 °F 89 °F (2007)
Min Temperature 66 °F 59 °F 46 °F (2001)
Degree Days  
Heating Degree Days 0 1  
Month to date heating degree days 7 4  
Since 1 July heating degree days 7 4  
Cooling Degree Days 10 6  
Month to date cooling degree days 256 227  
Year to date cooling degree days 2211 1799  
Growing Degree Days 24 (Base 50)    
Moisture  
Dew Point 70 °F    
Average Humidity 87    
Maximum Humidity 100    
Minimum Humidity 74    
Precipitation  
Precipitation 0.00 in 0.16 in 2.40 in (2010)
Month to date precipitation 2.70 4.17  
Year to date precipitation 34.27 34.56  
Sea Level Pressure  
Sea Level Pressure 29.95 in    
Wind  
Wind Speed 3 mph (East)    
Max Wind Speed 8 mph    
Max Gust Speed 12 mph    
Visibility 10 miles    
Events      
T = Trace of Precipitation, MM = Missing Value Source: NWS Daily Summary

Daily Weather History Graph

Daily Weather History Graph

Search for Another Location

Airport:

Trip Planner

Search our weather history database for the weather conditions in past years. The results will help you decide how hot, cold, wet, or windy it might be!

Date:

Astronomy

Sep. 26, 2011 Rise Set
Actual Time 7:06 AM EDT 7:07 PM EDT
Civil Twilight 6:41 AM EDT 7:32 PM EDT
Nautical Twilight 6:12 AM EDT 8:02 PM EDT
Astronomical Twilight 5:43 AM EDT 8:31 PM EDT
Moon 6:05 AM EDT (9/26) 6:22 PM EDT (9/26)
Length of Visible Light 12h 50m
Length of Day
12h 00m
Waning Crescent, 1% of the Moon is Illuminated
Sep 26
Waning Crescent
Sep 27
New
Oct 3
First Quarter
Oct 11
Full
Oct 19
Last Quarter

Hourly Weather History & Observations

Time (EDT) Temp. Heat Index Dew Point Humidity Pressure Visibility Wind Dir Wind Speed Gust Speed Precip Events Conditions
12:54 AM 69.1 °F - 66.0 °F 90% 29.97 in 10.0 mi NE 3.5 mph - 0.01 in   Partly Cloudy
1:54 AM 68.0 °F - 66.9 °F 96% 29.96 in 10.0 mi Calm Calm - N/A   Clear
2:54 AM 68.0 °F - 66.0 °F 93% 29.94 in 10.0 mi Calm Calm - N/A   Clear
3:54 AM 68.0 °F - 66.9 °F 96% 29.91 in 10.0 mi Calm Calm - N/A   Partly Cloudy
4:54 AM 66.9 °F - 66.0 °F 97% 29.92 in 10.0 mi Calm Calm - N/A   Clear
5:54 AM 66.0 °F - 64.9 °F 96% 29.94 in 10.0 mi WNW 3.5 mph - N/A   Clear
6:54 AM 66.9 °F - 66.0 °F 97% 29.97 in 10.0 mi NNE 3.5 mph - N/A   Partly Cloudy
7:11 AM 66.2 °F - 66.2 °F 100% 29.98 in 10.0 mi Calm Calm - N/A   Mostly Cloudy
7:54 AM 68.0 °F - 66.0 °F 93% 29.99 in 10.0 mi NNE 5.8 mph - N/A   Overcast
8:54 AM 68.0 °F - 66.9 °F 96% 29.99 in 10.0 mi NNE 3.5 mph - N/A   Overcast
9:16 AM 69.8 °F - 66.2 °F 88% 29.99 in 10.0 mi NNE 3.5 mph - N/A   Overcast
9:54 AM 70.0 °F - 68.0 °F 93% 30.00 in 6.0 mi NNE 4.6 mph - N/A   Overcast
10:54 AM 72.0 °F - 69.1 °F 91% 30.01 in 10.0 mi NNE 6.9 mph - N/A   Overcast
11:24 AM 73.4 °F - 69.8 °F 88% 30.02 in 10.0 mi NE 5.8 mph - N/A   Overcast
11:54 AM 73.9 °F - 69.1 °F 85% 30.01 in 10.0 mi NE 4.6 mph - N/A   Overcast
12:54 PM 75.9 °F - 70.0 °F 82% 29.99 in 10.0 mi ESE 4.6 mph - N/A   Overcast
1:04 PM 77.0 °F - 69.8 °F 78% 29.99 in 10.0 mi ESE 4.6 mph - N/A   Overcast
1:44 PM 80.6 °F 84.6 °F 71.6 °F 74% 29.97 in 10.0 mi Variable 3.5 mph - N/A   Scattered Clouds
1:54 PM 80.1 °F 83.6 °F 71.1 °F 74% 29.96 in 10.0 mi ENE 5.8 mph - N/A   Clear
3:05 PM 82.4 °F 87.2 °F 71.6 °F 70% 29.93 in 10.0 mi SE 3.5 mph - N/A   Mostly Cloudy
3:12 PM 80.6 °F 84.6 °F 71.6 °F 74% 29.93 in 10.0 mi Calm Calm - N/A   Scattered Clouds
3:42 PM 80.6 °F 84.6 °F 71.6 °F 74% 29.93 in 10.0 mi SSE 6.9 mph - N/A   Mostly Cloudy
3:54 PM 81.0 °F 85.2 °F 72.0 °F 74% 29.93 in 10.0 mi SSE 6.9 mph - N/A   Mostly Cloudy
4:22 PM 82.4 °F 88.2 °F 73.4 °F 74% 29.92 in 10.0 mi SSE 5.8 mph - N/A   Partly Cloudy
4:45 PM 80.6 °F 85.4 °F 73.4 °F 79% 29.93 in 10.0 mi SSE 5.8 mph - N/A   Mostly Cloudy
5:09 PM 78.8 °F - 71.6 °F 78% 29.92 in 10.0 mi SE 5.8 mph - N/A   Scattered Clouds
6:54 PM 75.9 °F - 73.0 °F 91% 29.94 in 10.0 mi South 3.5 mph - N/A   Clear
7:54 PM 75.0 °F - 73.0 °F 94% 29.92 in 10.0 mi SE 3.5 mph - N/A   Clear
8:54 PM 75.0 °F - 72.0 °F 90% 29.93 in 10.0 mi Calm Calm - N/A   Clear
9:19 PM 73.4 °F - 71.6 °F 94% 29.94 in 10.0 mi SSE 3.5 mph - N/A   Mostly Cloudy
9:37 PM 73.4 °F - 73.4 °F 100% 29.94 in 10.0 mi Calm Calm - N/A   Mostly Cloudy
9:45 PM 73.4 °F - 71.6 °F 94% 29.93 in 10.0 mi SSE 3.5 mph - N/A   Partly Cloudy
9:54 PM 73.9 °F - 72.0 °F 93% 29.93 in 10.0 mi SSE 3.5 mph - N/A   Clear
10:54 PM 73.0 °F - 72.0 °F 96% 29.92 in 8.0 mi Calm Calm - N/A   Clear
11:54 PM 72.0 °F - 71.1 °F 97% 29.93 in 6.0 mi Calm Calm - N/A   Clear